Temperature
30 31 31 31 31 31 31 30 30 29 30 30 29 29 28 27 27 26 25 25 24 23 22 21 21 20 20 19 19 19 19 19 19 19 19 18 18 18 18 18 18 18 18 18
31 31 31 31 31 30 31 30 30 29 29 29 29 29 29 28 27 26 26 25 24 24 23 22 21 21 20 20 19 19 19 19 19 19 19 18 18 18 18 18 18 18 18 18
31 31 31 31 31 30 30 30 30 30 29 29 29 29 29 28 27 26 26 25 25 24 24 23 22 21 21 20 20 20 19 19 19 19 19 18 18 18 18 18 18 18 18 18
31 32 31 31 31 31 30 31 30 30 30 30 30 29 29 29 28 27 26 26 25 24 24 23 22 22 21 20 20 20 20 20 19 19 19 18 18 19 18 18 18 18 18 18
31 31 31 31 31 31 31 30 30 30 30 30 30 30 30 29 28 28 27 26 25 24 24 23 23 22 21 21 20 20 20 20 20 19 19 19 18 18 18 18 18 18 18 18
32 32 31 31 31 31 30 30 30 30 31 29 30 30 29 29 29 29 28 26 25 24 24 23 22 22 21 21 20 20 20 20 20 19 19 19 19 18 18 18 18 18 18 18
31 31 31 31 31 30 31 31 30 30 30 30 30 30 29 29 29 29 28 26 25 24 23 23 22 22 21 21 20 20 20 20 20 19 19 19 19 18 18 18 18 18 18 18
30 31 31 31 31 31 31 31 30 29 30 30 30 29 30 29 28 28 27 26 25 24 24 23 22 22 21 21 20 20 20 20 19 19 19 19 19 18 18 18 18 18 18 18
31 31 31 31 31 32 31 31 32 31 30 30 30 30 29 29 28 27 27 26 25 24 24 23 23 22 21 21 20 20 20 20 19 19 19 19 19 19 18 18 18 18 18 18
31 30 31 31 31 30 31 32 31 31 29 29 29 29 30 28 28 28 27 26 25 24 24 23 22 22 21 21 20 20 19 20 19 19 19 19 19 19 18 18 18 18 18 18
32 30 30 30 30 30 30 30 30 31 30 30 29 29 30 29 28 28 27 26 25 24 23 23 22 21 21 21 20 20 19 19 19 19 19 19 19 19 18 18 18 18 18 18
30 31 30 30 30 30 31 31 30 30 29 30 30 29 29 29 28 27 27 25 24 24 23 22 22 21 21 20 20 20 19 19 19 19 19 19 18 18 18 18 18 18 18 17
30 30 29 29 30 30 30 30 31 31 30 30 29 29 28 28 28 27 26 25 24 23 23 22 22 21 20 20 20 19 19 19 19 18 18 18 18 18 18 18 17 17 17 17
28 30 29 29 30 30 29 29 30 30 30 29 29 29 28 28 27 26 25 24 24 23 22 22 21 21 20 20 19 19 19 19 18 18 18 18 18 18 17 17 17 17 17 17
29 29 29 29 30 30 29 29 29 29 29 29 29 29 29 28 27 26 25 24 23 23 22 21 21 20 20 19 19 19 19 18 18 18 18 18 17 17 17 17 17 17 17 16
28 28 28 28 29 29 29 29 29 29 29 29 29 29 28 27 26 25 24 23 23 22 22 21 20 20 19 19 19 18 18 18 18 18 18 17 17 17 17 17 17 16 16 16
28 27 28 28 28 28 28 28 29 29 29 29 28 28 27 26 25 24 23 23 22 22 21 20 20 19 19 19 18 18 18 18 18 18 17 17 17 17 17 17 16 16 16 16
27 26 27 28 27 26 28 28 28 28 28 28 28 27 26 25 24 23 22 22 21 21 20 20 20 19 19 19 19 18 18 17 17 17 17 17 17 17 17 16 16 16 16 16
26 26 27 28 27 27 27 27 27 27 27 27 27 26 25 24 24 23 21 21 20 20 19 19 19 19 19 18 18 18 17 17 17 17 17 16 16 16 16 16 16 16 15 15
25 25 27 27 26 26 27 27 26 27 26 26 25 25 24 24 25 24 21 20 19 19 19 19 19 18 18 18 17 17 17 17 17 16 16 16 16 16 16 16 16 15 15 15
25 25 26 26 26 27 27 26 26 26 26 25 24 23 23 23 24 21 20 19 19 18 18 18 18 18 17 17 17 17 17 17 16 16 16 16 16 16 15 15 15 15 15 15
26 26 25 26 26 26 25 26 26 25 23 23 23 22 22 21 20 20 19 19 18 18 18 17 17 17 17 17 16 16 16 16 16 16 16 15 15 15 15 15 15 15 15 15
25 25 26 26 26 24 24 24 23 22 22 22 21 21 20 20 20 19 18 18 18 17 17 17 17 17 17 16 16 16 16 16 16 15 15 15 15 15 15 15 15 15 15 15
24 23 24 24 24 23 22 22 21 21 21 21 20 20 20 20 19 18 18 18 17 17 17 17 16 16 16 16 16 15 15 15 15 15 15 15 14 14 14 14 14 14 14 14
23 23 24 23 23 22 22 21 21 20 20 20 20 20 19 19 18 18 17 17 17 17 16 16 16 16 15 15 15 15 15 15 15 15 14 14 14 14 14 14 14 14 14 14
22 23 23 23 22 23 21 20 20 20 19 19 19 19 19 18 18 17 17 16 16 16 16 16 16 15 15 15 15 15 15 15 14 14 14 14 14 14 14 14 14 14 14 13
Wind_Speed
5 5 3 1 1 1 1 1 2 3 2 2 3 4 6 6 5 5 5 5 5 4 4 4 3 3 3 2 2 2 1 1 1 0 1 0 0 1 1 1 1 1 2 1
6 5 2 1 2 3 2 1 2 3 3 1 3 3 3 5 5 4 5 5 5 5 5 4 4 3 3 3 3 3 2 2 2 1 1 1 2 1 1 1 1 1 1 2
6 2 2 3 3 3 2 1 0 2 3 4 3 4 4 4 4 4 4 4 5 5 5 5 5 4 4 4 3 2 2 2 2 2 1 1 1 1 1 1 1 1 2 2
5 3 3 4 3 3 1 0 2 3 4 2 3 1 4 4 4 4 5 5 5 5 5 5 5 4 4 3 3 3 2 2 2 2 1 2 1 2 2 2 2 1 2 2
5 5 5 5 3 3 0 2 2 3 3 2 2 2 3 4 3 4 5 5 5 5 5 5 4 4 3 3 3 3 2 2 2 2 2 2 2 2 2 2 2 2 2 2
5 4 4 3 2 3 4 4 4 6 5 2 1 3 1 1 1 3 5 5 5 5 5 4 4 3 3 3 3 3 2 2 2 2 2 2 2 2 3 3 3 2 1 1
8 7 5 4 5 6 6 6 4 4 3 1 1 2 2 3 2 2 4 5 6 6 5 5 4 4 3 3 3 2 3 2 1 1 2 2 3 3 3 4 2 3 2 2
9 9 7 5 5 5 6 7 5 4 3 1 2 2 2 4 3 3 4 5 6 6 5 5 5 5 4 3 3 3 3 2 1 1 1 1 3 3 3 3 3 3 3 2
7 7 6 4 3 5 5 6 6 6 6 5 2 1 3 4 4 4 4 5 5 5 5 5 5 5 4 4 4 3 3 2 1 0 1 0 1 3 3 3 3 3 3 2
6 6 6 6 5 2 4 4 4 6 5 5 3 4 2 4 3 4 4 4 5 5 5 5 5 5 5 4 4 3 3 2 1 1 1 0 1 1 2 3 3 3 3 3
8 8 7 8 7 6 5 5 5 5 6 7 4 0 3 3 3 3 4 4 4 5 5 5 5 5 4 4 4 3 2 2 1 0 0 1 1 1 2 2 2 3 3 3
8 7 7 8 4 3 6 7 7 6 6 6 6 0 5 3 3 3 3 4 4 4 5 5 5 5 4 3 3 3 2 2 1 0 1 1 2 2 3 3 3 3 3 3
6 7 8 9 9 6 6 6 8 9 7 7 7 1 5 3 3 3 3 4 5 5 4 5 4 4 3 3 2 2 2 1 1 1 1 2 2 3 3 4 3 3 3 4
6 7 9 8 5 6 7 6 6 8 8 7 6 4 2 2 2 2 3 4 5 5 4 4 3 3 2 2 2 2 2 1 1 2 2 2 3 3 3 4 4 4 4 4
5 8 8 6 4 5 6 7 7 8 9 8 6 5 2 1 2 3 3 4 4 4 4 3 3 2 2 2 1 1 1 1 1 2 3 3 3 4 4 4 4 4 4 5
4 6 8 8 7 6 7 7 8 8 8 8 7 5 1 1 2 3 4 4 3 3 3 3 3 2 2 2 1 1 1 1 1 2 3 3 3 3 4 4 4 4 5 5
6 7 9 9 8 8 10 8 9 8 7 8 8 4 1 1 2 3 3 3 3 2 2 2 2 2 2 2 1 1 1 1 1 2 3 3 3 3 4 5 4 4 5 5
7 8 7 8 8 12 4 0 4 6 6 5 4 1 1 1 2 2 2 2 1 1 1 1 1 1 1 1 1 1 1 1 2 2 3 4 4 4 4 5 5 5 5 5
7 8 7 9 11 9 6 4 4 6 6 3 3 2 1 1 3 3 2 2 2 1 1 1 1 1 1 0 0 0 1 1 2 3 3 4 4 5 5 5 6 5 5 6
6 8 9 9 10 10 4 3 2 5 7 1 2 2 3 3 4 2 3 2 3 2 2 1 2 2 2 1 1 0 1 2 3 3 3 4 4 5 5 6 6 6 6 6
9 8 10 11 10 7 2 3 4 6 2 1 1 2 4 3 2 2 3 3 2 2 2 2 3 2 2 2 2 1 2 2 3 4 3 4 4 5 5 5 5 5 6 6
9 8 9 9 11 7 4 4 3 2 2 0 1 2 2 1 2 3 3 3 2 2 2 3 3 2 2 2 2 2 3 3 3 4 4 4 4 5 4 5 5 5 5 6
7 5 5 5 3 2 3 1 1 1 1 1 1 2 3 3 3 3 2 3 2 2 2 3 3 2 2 2 2 3 4 4 4 4 4 4 5 5 5 5 5 4 4 5
5 2 4 4 4 2 1 1 1 1 2 2 2 3 4 4 3 3 2 2 2 2 2 2 2 2 3 3 3 3 4 4 4 4 5 5 5 5 4 5 5 5 4 5
3 4 5 6 4 3 3 2 1 1 1 1 2 3 4 4 3 3 2 2 1 1 1 1 2 2 3 3 3 4 4 4 4 5 5 5 4 4 4 4 4 5 4 4
5 6 7 6 4 4 2 1 1 1 2 2 3 3 3 3 4 3 2 1 1 0 1 1 2 2 3 4 4 4 4 4 5 5 5 5 4 4 4 4 4 2 4 3
Wind_Direction
201 225 220 168 320 5 12 40 73 79 108 151 120 121 140 160 175 175 177 178 180 172 160 160 166 164 160 157 167 169 185 162 205 220 274 270 344 312 296 282 320 302 305 291
201 218 228 196 200 222 233 219 117 120 135 171 125 124 138 164 183 191 190 186 186 178 170 168 175 178 179 175 185 189 190 196 215 191 245 286 314 308 312 323 350 312 299 281
215 175 151 200 198 210 226 265 61 128 155 182 182 161 143 156 179 183 190 190 188 186 180 176 177 185 190 189 194 192 196 203 225 234 225 242 242 273 307 306 303 307 308 290
222 201 204 209 203 235 212 257 195 188 212 168 238 163 133 161 176 193 194 188 184 178 177 177 175 181 192 193 184 182 183 199 219 226 239 259 294 316 321 309 329 326 322 308
200 202 214 220 226 245 212 158 202 212 237 251 227 270 116 148 186 191 187 184 178 172 173 176 176 175 185 188 185 178 171 196 216 229 215 242 266 291 307 310 323 313 310 299
205 192 223 214 185 197 165 176 192 216 235 256 287 275 66 119 191 166 164 169 168 163 161 164 160 158 171 176 181 171 160 179 212 230 237 246 274 295 308 306 312 307 312 304
196 190 183 187 180 178 211 236 237 227 224 233 146 264 34 67 95 148 154 153 156 159 162 160 161 162 162 164 163 154 146 157 190 224 259 272 280 279 283 292 298 309 321 320
206 197 188 199 223 224 227 257 279 292 293 260 192 241 84 88 102 115 134 143 152 157 160 162 164 162 160 156 153 149 140 140 147 186 260 286 292 288 293 298 305 310 309 313
216 197 163 183 215 238 224 248 283 281 277 273 239 190 141 129 133 131 135 141 153 161 162 161 159 158 158 156 155 156 147 143 136 133 191 275 310 314 318 309 292 299 303 300
226 209 181 173 186 208 260 257 258 271 280 271 233 225 188 151 144 137 142 150 150 156 157 155 153 155 155 155 149 149 144 143 144 126 307 75 338 325 319 309 324 319 313 313
232 222 195 193 214 213 204 226 253 270 281 285 274 187 80 135 146 154 148 147 151 153 155 154 155 157 155 152 147 149 160 174 172 160 325 332 319 318 308 304 307 305 306 309
220 230 224 210 197 244 235 241 239 253 257 272 283 265 90 114 136 137 137 138 141 146 150 152 154 156 159 159 160 168 189 201 207 239 278 296 302 305 300 301 300 297 296 294
203 225 219 208 197 194 221 240 250 258 258 261 265 204 110 122 133 130 135 141 145 153 154 154 156 162 169 175 181 192 213 233 273 288 284 297 298 301 302 304 298 294 288 290
222 227 235 239 231 204 213 223 241 250 251 255 264 264 177 175 175 154 147 148 152 155 161 166 169 173 177 186 191 214 246 264 290 301 289 287 291 294 297 296 289 286 282 281
223 227 229 245 237 221 231 235 231 243 262 272 272 269 276 230 190 168 162 151 159 163 168 175 185 178 180 179 188 213 248 283 306 289 289 294 291 290 290 290 283 280 278 276
222 223 216 227 225 228 240 241 238 243 254 259 262 265 321 118 135 156 166 167 172 174 181 189 192 191 194 191 193 214 247 281 283 286 296 300 293 293 296 292 286 279 276 278
208 214 227 230 223 232 236 238 237 241 247 256 257 264 156 181 182 181 181 186 187 189 189 194 204 200 201 206 210 218 249 273 285 297 300 294 291 294 293 293 291 282 277 274
218 222 230 232 218 235 233 155 250 247 241 249 267 237 190 228 184 166 175 175 191 186 170 170 196 204 208 222 213 236 269 288 294 299 302 301 297 291 289 288 288 284 280 277
215 216 230 232 232 235 220 205 225 238 239 233 245 233 206 136 177 162 131 145 144 120 100 93 116 90 45 23 8 204 276 293 301 309 306 306 299 294 290 287 289 287 282 278
192 215 230 234 241 242 222 156 211 240 231 181 237 222 194 193 226 156 117 129 114 91 68 54 67 74 57 17 8 318 287 303 309 312 306 300 293 291 289 289 287 285 279 273
193 206 225 233 240 239 129 140 195 233 265 83 206 196 202 231 310 102 126 127 108 88 66 55 57 59 40 10 353 324 321 321 320 316 309 302 296 287 286 290 291 289 283 282
213 213 219 231 239 232 125 169 225 340 31 70 170 183 187 137 111 126 126 123 108 83 62 49 45 43 31 12 345 332 332 330 325 314 307 302 299 294 298 297 295 293 290 284
223 240 236 239 240 88 146 166 17 343 291 219 186 183 173 165 149 142 131 126 111 85 65 50 41 40 30 16 355 339 338 333 322 311 303 297 295 294 295 290 291 289 286 289
203 215 226 230 220 196 204 256 286 279 263 235 210 195 188 175 161 156 143 126 116 101 77 53 35 21 9 4 359 343 331 322 313 309 307 300 294 292 291 289 289 292 299 299
221 208 220 230 233 239 228 237 257 261 210 190 187 190 185 171 171 163 155 145 136 109 52 23 11 2 353 351 346 341 336 325 316 311 306 299 297 300 296 289 291 291 298 303
225 233 239 246 231 248 237 257 250 209 187 179 175 177 177 171 170 166 162 162 167 126 349 336 340 339 339 339 340 341 332 322 314 307 305 301 298 301 297 299 298 306 288 292
Height
1510 1507 1506 1505 1505 1506 1507 1510 1514 1513 1512 1513 1514 1516 1518 1522 1524 1526 1528 1530 1532 1534 1536 1537 1537 1538 1538 1537 1536 1536 1536 1536 1535 1536 1536 1536 1536 1536 1536 1535 1534 1533 1533 1532
1507 1507 1504 1504 1506 1507 1507 1511 1512 1513 1513 1513 1515 1516 1516 1519 1522 1524 1526 1528 1531 1533 1535 1536 1536 1537 1537 1537 1536 1536 1536 1536 1536 1536 1535 1536 1536 1536 1535 1535 1533 1533 1532 1532
1505 1503 1504 1505 1506 1508 1508 1509 1510 1513 1513 1512 1514 1516 1516 1518 1521 1523 1525 1527 1529 1531 1533 1534 1535 1536 1536 1536 1536 1536 1535 1535 1535 1535 1536 1536 1536 1536 1535 1534 1534 1533 1532 1531
1502 1502 1504 1504 1505 1505 1510 1506 1508 1511 1513 1513 1513 1521 1515 1514 1517 1520 1522 1525 1527 1529 1531 1532 1534 1535 1535 1536 1535 1535 1535 1535 1535 1535 1535 1535 1536 1535 1535 1534 1533 1532 1531 1530
1502 1502 1504 1505 1505 1504 1506 1505 1506 1508 1510 1511 1511 1515 1514 1512 1516 1516 1519 1522 1525 1527 1529 1531 1532 1534 1534 1535 1535 1534 1534 1534 1534 1534 1534 1534 1535 1535 1534 1533 1532 1531 1531 1529
1499 1501 1502 1502 1503 1505 1505 1506 1507 1506 1505 1520 1513 1516 1518 1510 1513 1513 1516 1520 1523 1526 1528 1529 1531 1532 1533 1534 1534 1534 1533 1533 1533 1533 1533 1533 1533 1533 1533 1532 1531 1531 1530 1529
1502 1500 1501 1502 1503 1505 1505 1508 1517 1519 1518 1519 1509 1514 1515 1508 1510 1512 1515 1518 1522 1524 1526 1528 1530 1531 1532 1533 1533 1534 1533 1533 1533 1532 1532 1532 1532 1532 1531 1531 1530 1530 1529 1528
1505 1506 1499 1500 1501 1502 1502 1503 1518 1527 1523 1514 1511 1515 1510 1508 1511 1513 1515 1518 1521 1523 1525 1527 1529 1530 1531 1532 1532 1532 1532 1532 1532 1532 1531 1531 1531 1531 1531 1530 1529 1529 1528 1527
1499 1503 1497 1499 1499 1499 1502 1502 1497 1505 1509 1515 1511 1509 1507 1508 1511 1513 1515 1517 1520 1522 1524 1526 1527 1529 1530 1531 1531 1531 1531 1531 1531 1531 1531 1530 1530 1529 1529 1528 1527 1527 1526 1525
1492 1502 1497 1499 1500 1501 1498 1497 1501 1506 1522 1524 1516 1512 1509 1509 1510 1512 1514 1517 1519 1521 1522 1524 1526 1527 1529 1530 1530 1530 1530 1530 1530 1530 1530 1530 1529 1528 1527 1527 1526 1525 1524 1523
1490 1499 1500 1499 1501 1501 1503 1503 1503 1503 1505 1517 1521 1515 1501 1506 1508 1510 1513 1516 1518 1520 1521 1523 1525 1526 1528 1529 1529 1529 1529 1529 1529 1529 1529 1528 1528 1527 1526 1526 1525 1523 1522 1521
1493 1493 1500 1498 1497 1497 1497 1498 1501 1510 1513 1509 1511 1514 1502 1504 1507 1510 1513 1516 1518 1519 1521 1522 1524 1526 1527 1528 1528 1528 1528 1529 1529 1528 1528 1527 1526 1526 1525 1524 1523 1522 1521 1520
1494 1496 1508 1507 1503 1500 1499 1498 1496 1495 1500 1506 1511 1512 1504 1506 1508 1511 1513 1516 1518 1520 1521 1522 1523 1525 1525 1526 1527 1527 1528 1528 1528 1527 1526 1526 1525 1524 1523 1522 1521 1520 1518 1517
1495 1494 1500 1506 1500 1495 1500 1500 1499 1498 1503 1505 1505 1504 1503 1505 1507 1511 1513 1515 1517 1519 1520 1521 1522 1523 1524 1525 1525 1525 1526 1526 1526 1525 1525 1524 1523 1522 1521 1519 1518 1517 1516 1515
1494 1495 1495 1493 1492 1494 1497 1499 1499 1501 1499 1502 1501 1500 1501 1503 1507 1511 1513 1515 1516 1518 1519 1520 1521 1522 1523 1523 1523 1524 1524 1524 1523 1523 1523 1522 1521 1519 1518 1517 1516 1515 1514 1513
1494 1496 1497 1499 1495 1495 1498 1497 1498 1499 1498 1498 1499 1501 1501 1505 1508 1511 1513 1515 1516 1517 1518 1519 1520 1520 1521 1521 1522 1522 1522 1522 1521 1521 1520 1519 1518 1517 1516 1515 1513 1512 1511 1510
1493 1497 1499 1499 1496 1499 1503 1496 1496 1497 1495 1497 1499 1500 1502 1505 1508 1511 1513 1514 1515 1516 1517 1518 1519 1519 1519 1520 1520 1520 1520 1520 1519 1518 1517 1516 1515 1514 1513 1512 1511 1509 1508 1507
1496 1497 1496 1496 1503 1513 1496 1492 1493 1495 1495 1496 1498 1500 1503 1506 1508 1511 1512 1514 1515 1516 1516 1517 1518 1518 1518 1518 1518 1518 1518 1518 1517 1516 1515 1514 1513 1511 1510 1509 1508 1506 1505 1504
1494 1497 1496 1496 1501 1500 1495 1493 1494 1496 1496 1497 1498 1501 1504 1506 1507 1509 1512 1513 1515 1515 1516 1516 1516 1517 1517 1517 1516 1515 1516 1516 1515 1514 1512 1511 1510 1509 1508 1506 1505 1503 1502 1501
1495 1495 1495 1496 1502 1504 1493 1492 1495 1497 1498 1498 1500 1502 1504 1505 1503 1506 1511 1513 1514 1514 1515 1515 1515 1515 1515 1515 1515 1514 1513 1513 1512 1511 1510 1509 1507 1506 1505 1503 1502 1501 1499 1498
1494 1495 1495 1495 1497 1492 1490 1493 1496 1502 1500 1499 1500 1502 1504 1504 1505 1509 1511 1512 1513 1514 1514 1514 1514 1514 1514 1513 1513 1512 1511 1510 1510 1509 1507 1506 1505 1503 1502 1501 1499 1497 1496 1495
1489 1490 1494 1493 1497 1497 1493 1493 1495 1498 1499 1500 1501 1503 1505 1506 1507 1509 1510 1511 1512 1513 1513 1513 1513 1513 1512 1512 1511 1510 1509 1508 1507 1506 1505 1503 1502 1501 1500 1498 1496 1494 1493 1491
1486 1486 1485 1489 1492 1493 1494 1495 1498 1499 1500 1501 1502 1503 1505 1506 1507 1508 1510 1511 1511 1512 1512 1512 1512 1512 1511 1510 1509 1508 1507 1506 1505 1503 1502 1500 1499 1498 1496 1495 1494 1492 1490 1489
1487 1491 1489 1490 1490 1493 1496 1497 1498 1499 1500 1501 1502 1503 1504 1505 1506 1508 1509 1510 1511 1511 1511 1511 1511 1511 1510 1509 1507 1506 1505 1504 1502 1501 1499 1498 1496 1495 1493 1492 1491 1490 1488 1486
1487 1489 1488 1490 1492 1494 1495 1497 1498 1499 1499 1500 1501 1502 1503 1504 1505 1507 1508 1508 1509 1510 1510 1510 1509 1509 1508 1507 1506 1504 1503 1501 1500 1498 1497 1495 1494 1493 1491 1489 1488 1486 1485 1483
1488 1488 1488 1487 1491 1492 1495 1496 1497 1498 1498 1499 1500 1501 1502 1503 1504 1505 1506 1507 1508 1508 1508 1508 1508 1507 1506 1505 1504 1502 1500 1499 1497 1496 1494 1493 1492 1490 1489 1487 1485 1483 1481 1480